Oak Ridge, TN

4:39 PM EST on November 22, 2019 (GMT -0500)
Oak Ridge

Weather History for KOQT - September, 2019

Change the Weather History Date:

Saturday, September 28, 2019

  Actual Average (WUND) Record (WUND)
Temperature  
Mean Temperature 80 °F -  
Max Temperature 91 °F - - (-1)
Min Temperature 69 °F - - (-1)
Cooling Degree Days 15    
Growing Degree Days 30 (Base 50)    
Moisture  
Dew Point 68 °F    
Average Humidity 70    
Maximum Humidity 93    
Minimum Humidity 44    
Precipitation  
Precipitation 0.00 in - - ()
Sea Level Pressure  
Sea Level Pressure 30.07 in    
Wind  
Wind Speed 1 mph ()    
Max Wind Speed 6 mph    
Max Gust Speed -    
Visibility 9.2 miles    
Events      
Averages and records for this station are not official NWS values.
T = Trace of Precipitation, MM = Missing Value Source: Averaged Metar Reports

Daily Weather History Graph

Daily Weather History Graph

Search for Another Location

Airport or City:

Astronomy

Sep. 28, 2019 Rise Set
Actual Time 7:29 AM EDT 7:25 PM EDT
Civil Twilight 7:03 AM EDT 7:50 PM EDT
Nautical Twilight 6:34 AM EDT 8:20 PM EDT
Astronomical Twilight 6:04 AM EDT 8:50 PM EDT
Moon 7:07 AM EDT (9/28) 7:49 PM EDT (9/28)
Length of Visible Light 12h 46m
Length of Day
11h 55m
Waning Crescent, 0% of the Moon is Illuminated
Sep 28
Waning Crescent
Sep 28
New
Oct 5
First Quarter
Oct 13
Full
Oct 21
Last Quarter

Hourly Weather History & Observations

Time (EDT) Temp. Heat Index Dew Point Humidity Pressure Visibility Wind Dir Wind Speed Gust Speed Precip Events Conditions
12:53 AM 72.0 °F - 69.1 °F 91% 29.97 in 6.0 mi Calm Calm - N/A   Clear
1:53 AM 71.1 °F - 68.0 °F 90% 29.96 in 7.0 mi Calm Calm - N/A   Clear
2:53 AM 71.1 °F - 68.0 °F 90% 29.99 in 9.0 mi Calm Calm - N/A   Clear
3:53 AM 71.1 °F - 68.0 °F 90% 30.00 in 9.0 mi Calm Calm - N/A   Clear
4:53 AM 70.0 °F - 66.9 °F 90% 30.01 in 7.0 mi Calm Calm - N/A   Clear
5:53 AM 69.1 °F - 66.9 °F 93% 30.03 in 8.0 mi Calm Calm - N/A   Overcast
6:53 AM 69.1 °F - 66.9 °F 93% 30.05 in 7.0 mi Calm Calm - N/A   Clear
7:53 AM 70.0 °F - 66.9 °F 90% 30.08 in 8.0 mi Calm Calm - N/A   Clear
8:53 AM 72.0 °F - 68.0 °F 87% 30.11 in 10.0 mi Calm Calm - N/A   Clear
10:53 AM 80.1 °F 82.7 °F 68.0 °F 67% 30.13 in 10.0 mi Variable 3.5 mph - N/A   Overcast
11:53 AM 82.0 °F 84.9 °F 68.0 °F 62% 30.14 in 10.0 mi Variable 3.5 mph - N/A   Mostly Cloudy
12:53 PM 84.9 °F 88.8 °F 69.1 °F 59% 30.12 in 10.0 mi North - - N/A   Scattered Clouds
1:53 PM 87.1 °F 91.3 °F 69.1 °F 55% 30.10 in 10.0 mi Variable 5.8 mph - N/A   Partly Cloudy
2:53 PM 89.1 °F 92.9 °F 68.0 °F 50% 30.08 in 10.0 mi SW 3.5 mph - N/A   Clear
3:53 PM 91.0 °F 95.2 °F 68.0 °F 47% 30.06 in 10.0 mi Variable 4.6 mph - N/A   Clear
4:53 PM 91.0 °F 94.3 °F 66.9 °F 45% 30.06 in 10.0 mi Variable 4.6 mph - N/A   Clear
5:53 PM 91.0 °F 93.8 °F 66.0 °F 44% 30.07 in 10.0 mi Variable 4.6 mph - N/A   Clear
6:53 PM 89.1 °F 91.3 °F 66.0 °F 46% 30.08 in 10.0 mi Variable 3.5 mph - N/A   Clear
7:53 PM 84.9 °F 87.1 °F 66.0 °F 53% 30.09 in 10.0 mi Calm Calm - N/A   Clear
8:53 PM 80.1 °F 82.7 °F 68.0 °F 67% 30.09 in 10.0 mi Calm Calm - N/A   Clear
9:53 PM 79.0 °F - 68.0 °F 69% 30.09 in 10.0 mi Calm Calm - N/A   Clear
10:53 PM 78.1 °F - 68.0 °F 71% 30.12 in 10.0 mi Calm Calm - N/A   Clear
11:53 PM 79.0 °F - 66.9 °F 66% 30.13 in 10.0 mi Calm Calm - N/A   Clear